Volver al catálogo

STARLINK-3452

ActivoComunicacionesVLEO
NORAD 51744·PAYLOAD·🇺🇸 United States

Lanzado Feb 21, 2022 desde Cape Canaveral Space Force Station

Loading…

Próximos Pases (próximas 24 horas)

TLE

ActualizadoSource: CelesTrak SupGP

Época: Sep 15, 2026, 02:45 UTC

1 51744C 22016AG  26258.11506944  .00004132  00000+0  12539-3 0  2585
2 51744  53.1581 175.0722 0001459  81.9132  45.3395 15.33542836    13

Sigue STARLINK-3452 en tiempo real con AllMySat

Download on the App Store